This is the latest recevied weather packets stored in our database for station/object KP4OZ. If no packets are shown the sender has not sent any weather packets the latest 10 day(s).
| Time | Temp. | Humidity | Pressure | Rain* | Wind** | Luminosity | Snow |
|---|---|---|---|---|---|---|---|
| 1778016650 | 32.22° C | 52% | 1016.1 hPa | 0 mm | - | - | - |
| 1778016346 | 32.22° C | 52% | 1015.8 hPa | 0 mm | - | - | - |
| 1778016044 | 32.22° C | 52% | 1015.7 hPa | 0 mm | - | - | - |
| 1778015741 | 32.22° C | 52% | 1015.6 hPa | 0 mm | - | - | - |
| 1778015437 | 32.22° C | 52% | 1015.8 hPa | 0 mm | - | - | - |
| 1778015134 | 32.78° C | 52% | 1015.4 hPa | 0 mm | - | - | - |
| 1778014832 | 32.78° C | 51% | 1015.2 hPa | 0 mm | - | - | - |
| 1778014530 | 32.78° C | 51% | 1015.5 hPa | 0 mm | - | - | - |
| 1778014226 | 32.78° C | 50% | 1015.4 hPa | 0 mm | - | - | - |
| 1778013924 | 32.78° C | 50% | 1015.3 hPa | 0 mm | - | - | - |
| 1778013621 | 32.78° C | 49% | 1015.3 hPa | 0 mm | - | - | - |
| 1778013318 | 32.78° C | 49% | 1015.2 hPa | 0 mm | - | - | - |
| 1778013015 | 33.33° C | 49% | 1015.2 hPa | 0 mm | - | - | - |
| 1778012711 | 33.33° C | 48% | 1015.4 hPa | 0 mm | - | - | - |
| 1778012407 | 33.33° C | 50% | 1015.2 hPa | 0 mm | - | - | - |
| 1778012104 | 33.33° C | 49% | 1015.3 hPa | 0 mm | - | - | - |
| 1778011801 | 33.33° C | 49% | 1015.3 hPa | 0 mm | - | - | - |
| 1778011499 | 33.33° C | 49% | 1015.5 hPa | 0 mm | - | - | - |
| 1778011194 | 33.33° C | 50% | 1015.3 hPa | 0 mm | - | - | - |
| 1778010892 | 33.89° C | 47% | 1015.4 hPa | 0 mm | - | - | - |
| 1778010589 | 33.33° C | 50% | 1015.4 hPa | 0 mm | - | - | - |
| 1778010286 | 33.33° C | 50% | 1015.6 hPa | 0 mm | - | - | - |
| 1778009986 | 33.33° C | 49% | 1015.6 hPa | 0 mm | - | - | - |
| 1778009684 | 33.33° C | 49% | 1015.5 hPa | 0 mm | - | - | - |
| 1778009382 | 33.89° C | 49% | 1015.6 hPa | 0 mm | - | - | - |
* Rain latest hour (hover to see other rain measurements)
** Current wind speed in m/s (hover to see current wind gust speed)